sat.trackr.live / text

‹ back to catalog

STARLINK-32633

NORAD 62306 · 2024-239F

PAYLOAD ACTIVE UNKNOWN

§ Identity

Operator
Country
US
Launch date
2024-12-13
Launch site
AFWTR
Launch vehicle
Mass (kg)
RCS (m²)

Purposes: comms

External: N2YO · Heavens-Above · Gunter

§ Orbital elements

Epoch: 2026-05-25T03:59:27.391200Z

Period
94.10 min
Inclination
53.1572°
Eccentricity
0.0001055
Mean motion
15.30212863 rev/d
Perigee alt
474.5 km
Apogee alt
475.9 km
Semi-major
6,853.3 km
B*
5.5425e-4
RAAN
198.6337°
Arg perigee
79.3136°
Mean anomaly
280.7983°
Rev number
8,109

§ Raw data

STARLINK-326331 62306U 24239F   26145.16628925  .00016098  00000+0  55425-3 0  99912 62306  53.1572 198.6337 0001055  79.3136 280.7983 15.30212863 81095

JSON: /api/v1/satellites/62306 · /tle

For live sub-satellite position, see the globe view (requires WebGL).

§ Visibility from observer

Set your observer location to see the next 7 days of passes ≥ 10°. The values pass through the URL so the page stays shareable.

No JS? Fill the form by hand. The geolocation button needs JavaScript.